| time (UTC) | temp C | wind direction | speed KPH | gust KPH | rain 1hr cm | rain 24hr cm | rain mn cm | humidity % | barometer mb |
| 20260508132111 | 10 | 284 | 11.3 | 25.7 | 0.00 | 0.03 | 0.00 | 60 | 1006.6 |
| 20260508131610 | 10 | 300 | 9.7 | 25.7 | 0.00 | 0.03 | 0.00 | 60 | 1006.6 |
| 20260508131110 | 10 | 273 | 11.3 | 24.1 | 0.00 | 0.03 | 0.00 | 62 | 1006.6 |
| 20260508130609 | 10 | 294 | 11.3 | 24.1 | 0.00 | 0.03 | 0.00 | 61 | 1006.5 |
| 20260508130342 | 10 | 282 | 9.7 | 24.1 | 0.00 | 0.03 | 0.00 | 62 | 1006.7 |
| 20260508125615 | 9 | 296 | 11.3 | 27.4 | 0.00 | 0.03 | 0.00 | 62 | 1006.6 |
| 20260508125609 | 9 | 263 | 9.7 | 27.4 | 0.00 | 0.03 | 0.00 | 62 | 1006.6 |
| 20260508124611 | 8 | 296 | 12.9 | 27.4 | 0.00 | 0.03 | 0.00 | 62 | 1006.6 |
| 20260508124115 | 8 | 259 | 9.7 | 24.1 | 0.00 | 0.03 | 0.00 | 65 | 1006.5 |
| 20260508124109 | 8 | 256 | 11.3 | 27.4 | 0.00 | 0.03 | 0.00 | 63 | 1006.6 |
| 20260508123107 | 8 | 284 | 11.3 | 24.1 | 0.00 | 0.03 | 0.00 | 65 | 1006.6 |
| 20260508122841 | 8 | 275 | 11.3 | 24.1 | 0.00 | 0.03 | 0.00 | 64 | 1006.6 |
| 20260508122113 | 8 | 280 | 9.7 | 22.5 | 0.00 | 0.03 | 0.00 | 64 | 1006.7 |
| 20260508122107 | 8 | 297 | 11.3 | 22.5 | 0.00 | 0.03 | 0.00 | 65 | 1006.7 |
| 20260508121340 | 8 | 291 | 9.7 | 22.5 | 0.00 | 0.03 | 0.00 | 66 | 1006.6 |
| 20260508120608 | 8 | 244 | 9.7 | 22.5 | 0.00 | 0.03 | 0.00 | 65 | 1006.6 |
| 20260508120107 | 8 | 302 | 8.0 | 20.9 | 0.00 | 0.03 | 0.00 | 66 | 1006.7 |
| 20260508115841 | 7 | 297 | 8.0 | 20.9 | 0.00 | 0.03 | 0.00 | 66 | 1006.6 |
| 20260508115107 | 7 | 300 | 9.7 | 20.9 | 0.00 | 0.03 | 0.00 | 67 | 1006.6 |
| 20260508114608 | 7 | 287 | 9.7 | 20.9 | 0.00 | 0.03 | 0.00 | 67 | 1006.6 |
| 20260508114105 | 7 | 282 | 8.0 | 20.9 | 0.00 | 0.03 | 0.00 | 67 | 1006.6 |
| 20260508113607 | 7 | 286 | 8.0 | 20.9 | 0.00 | 0.03 | 0.00 | 67 | 1006.5 |
| 20260508113105 | 7 | 271 | 9.7 | 20.9 | 0.00 | 0.03 | 0.00 | 67 | 1006.5 |
| 20260508112836 | 6 | 244 | 8.0 | 20.9 | 0.00 | 0.03 | 0.00 | 68 | 1006.5 |
| 20260508112339 | 6 | 319 | 6.4 | 17.7 | 0.00 | 0.03 | 0.00 | 69 | 1006.5 |
| 20260508111836 | 6 | 288 | 4.8 | 16.1 | 0.00 | 0.03 | 0.00 | 69 | 1006.4 |
| 20260508111106 | 6 | 306 | 6.4 | 16.1 | 0.00 | 0.03 | 0.00 | 70 | 1006.5 |
| 20260508110611 | 6 | 280 | 6.4 | 16.1 | 0.00 | 0.03 | 0.00 | 70 | 1006.5 |
| 20260508110336 | 6 | 280 | 4.8 | 14.5 | 0.00 | 0.03 | 0.00 | 71 | 1006.5 |
| 20260508105607 | 6 | 273 | 4.8 | 12.9 | 0.00 | 0.03 | 0.00 | 72 | 1006.4 |
| 20260508105336 | 5 | 286 | 6.4 | 12.9 | 0.00 | 0.03 | 0.00 | 72 | 1006.4 |
| 20260508105225 | 5 | 250 | 6.4 | 16.1 | 0.00 | 0.03 | 0.00 | 71 | 1006.2 |
| 20260508104103 | 5 | 303 | 4.8 | 16.1 | 0.00 | 0.03 | 0.00 | 72 | 1006.2 |
| 20260508103604 | 5 | 258 | 6.4 | 16.1 | 0.00 | 0.03 | 0.00 | 73 | 1006.0 |
| 20260508103104 | 5 | 278 | 4.8 | 16.1 | 0.00 | 0.03 | 0.00 | 74 | 1005.9 |
| 20260508102605 | 4 | 275 | 3.2 | 9.7 | 0.00 | 0.03 | 0.00 | 75 | 1005.8 |
| 20260508102106 | 3 | 281 | 3.2 | 9.7 | 0.00 | 0.03 | 0.00 | 76 | 1005.7 |
| 20260508101603 | 3 | 277 | 3.2 | 6.4 | 0.00 | 0.03 | 0.00 | 77 | 1005.6 |
| 20260508101102 | 3 | 278 | 1.6 | 4.8 | 0.00 | 0.03 | 0.00 | 77 | 1005.5 |
| 20260508100603 | 3 | 278 | 0.0 | 4.8 | 0.00 | 0.03 | 0.00 | 76 | 1005.6 |
| 20260508100336 | 3 | 278 | 0.0 | 4.8 | 0.00 | 0.03 | 0.00 | 76 | 1005.6 |
| 20260508095833 | 3 | 277 | 1.6 | 4.8 | 0.00 | 0.03 | 0.00 | 76 | 1005.6 |
| 20260508095331 | 3 | 278 | 1.6 | 4.8 | 0.00 | 0.03 | 0.00 | 76 | 1005.5 |
| 20260508094604 | 3 | 278 | 0.0 | 3.2 | 0.00 | 0.03 | 0.00 | 75 | 1005.5 |
| 20260508094102 | 3 | 278 | 0.0 | 0.0 | 0.00 | 0.03 | 0.00 | 75 | 1005.5 |
| 20260508093601 | 3 | 278 | 0.0 | 0.0 | 0.00 | 0.03 | 0.00 | 74 | 1005.6 |
| 20260508093100 | 3 | 278 | 0.0 | 4.8 | 0.00 | 0.03 | 0.00 | 74 | 1005.6 |
| 20260508092601 | 3 | 278 | 1.6 | 4.8 | 0.00 | 0.03 | 0.00 | 74 | 1005.5 |
| 20260508092053 | 3 | 278 | 3.2 | 4.8 | 0.00 | 0.03 | 0.00 | 74 | 1005.5 |
| 20260508091554 | 3 | 278 | 3.2 | 4.8 | 0.00 | 0.03 | 0.00 | 74 | 1005.5 |
| 20260508091054 | 3 | 278 | 3.2 | 4.8 | 0.00 | 0.03 | 0.00 | 74 | 1005.4 |
| 20260508090554 | 3 | 277 | 3.2 | 4.8 | 0.00 | 0.03 | 0.00 | 74 | 1005.3 |
| 20260508090053 | 3 | 278 | 1.6 | 4.8 | 0.00 | 0.03 | 0.00 | 73 | 1005.3 |
| 20260508085553 | 3 | 278 | 1.6 | 4.8 | 0.00 | 0.03 | 0.00 | 73 | 1005.3 |
| 20260508085055 | 3 | 278 | 1.6 | 4.8 | 0.00 | 0.03 | 0.00 | 73 | 1005.2 |
| 20260508084822 | 3 | 278 | 1.6 | 4.8 | 0.00 | 0.05 | 0.00 | 72 | 1005.2 |
| 20260508084053 | 3 | 278 | 1.6 | 4.8 | 0.00 | 0.05 | 0.00 | 72 | 1005.1 |
| 20260508083551 | 3 | 278 | 1.6 | 4.8 | 0.00 | 0.05 | 0.00 | 71 | 1005.2 |
| 20260508083052 | 3 | 278 | 0.0 | 4.8 | 0.00 | 0.05 | 0.00 | 71 | 1005.1 |
| 20260508082552 | 3 | 278 | 0.0 | 6.4 | 0.00 | 0.05 | 0.00 | 70 | 1005.2 |
| 20260508082324 | 4 | 277 | 0.0 | 6.4 | 0.00 | 0.05 | 0.00 | 70 | 1005.1 |
| 20260508081552 | 4 | 277 | 1.6 | 6.4 | 0.00 | 0.05 | 0.00 | 70 | 1005.0 |
| 20260508081052 | 4 | 278 | 1.6 | 6.4 | 0.00 | 0.05 | 0.00 | 70 | 1005.0 |
| 20260508080551 | 4 | 277 | 1.6 | 6.4 | 0.00 | 0.05 | 0.00 | 69 | 1005.0 |
| 20260508080052 | 4 | 288 | 1.6 | 14.5 | 0.00 | 0.05 | 0.00 | 69 | 1005.0 |
| 20260508075551 | 4 | 288 | 3.2 | 14.5 | 0.00 | 0.05 | 0.00 | 69 | 1004.9 |
| 20260508075050 | 4 | 288 | 3.2 | 14.5 | 0.00 | 0.05 | 0.00 | 69 | 1005.0 |
| 20260508074550 | 5 | 311 | 3.2 | 14.5 | 0.00 | 0.05 | 0.00 | 68 | 1005.0 |
| 20260508074049 | 5 | 284 | 3.2 | 6.4 | 0.00 | 0.05 | 0.00 | 68 | 1004.9 |
| 20260508073550 | 5 | 285 | 3.2 | 6.4 | 0.00 | 0.05 | 0.00 | 68 | 1004.9 |
| 20260508073050 | 5 | 285 | 3.2 | 11.3 | 0.00 | 0.05 | 0.00 | 68 | 1004.9 |
| 20260508072550 | 5 | 276 | 3.2 | 11.3 | 0.00 | 0.05 | 0.00 | 68 | 1004.9 |
| 20260508072051 | 5 | 269 | 4.8 | 11.3 | 0.00 | 0.05 | 0.00 | 68 | 1004.9 |
| 20260508071549 | 5 | 274 | 4.8 | 11.3 | 0.00 | 0.05 | 0.00 | 68 | 1004.9 |
| 20260508071321 | 5 | 278 | 4.8 | 17.7 | 0.00 | 0.05 | 0.00 | 67 | 1005.0 |
| 20260508070548 | 5 | 281 | 4.8 | 17.7 | 0.00 | 0.05 | 0.00 | 67 | 1005.0 |
| 20260508070057 | 5 | 266 | 6.4 | 17.7 | 0.00 | 0.05 | 0.00 | 67 | 1005.0 |
| 20260508070051 | 5 | 270 | 4.8 | 17.7 | 0.00 | 0.05 | 0.00 | 67 | 1005.0 |
| 20260508065050 | 5 | 273 | 6.4 | 16.1 | 0.00 | 0.08 | 0.00 | 67 | 1005.0 |
| 20260508064550 | 5 | 283 | 4.8 | 16.1 | 0.00 | 0.08 | 0.00 | 67 | 1005.0 |
| 20260508064048 | 5 | 284 | 4.8 | 12.9 | 0.00 | 0.08 | 0.00 | 68 | 1005.0 |
| 20260508063549 | 4 | 304 | 3.2 | 12.9 | 0.00 | 0.08 | 0.00 | 69 | 1005.0 |
| 20260508063049 | 4 | 263 | 3.2 | 11.3 | 0.00 | 0.10 | 0.00 | 69 | 1005.1 |
| 20260508062822 | 4 | 279 | 3.2 | 9.7 | 0.00 | 0.13 | 0.00 | 70 | 1005.1 |
| 20260508062320 | 4 | 265 | 3.2 | 6.4 | 0.00 | 0.18 | 0.00 | 69 | 1005.1 |
| 20260508061545 | 4 | 265 | 3.2 | 9.7 | 0.00 | 0.20 | 0.00 | 69 | 1005.0 |
| 20260508061045 | 5 | 258 | 3.2 | 9.7 | 0.00 | 0.20 | 0.00 | 69 | 1005.0 |
| 20260508060815 | 5 | 274 | 3.2 | 9.7 | 0.00 | 0.23 | 0.00 | 68 | 1005.0 |
| 20260508060046 | 5 | 276 | 3.2 | 9.7 | 0.00 | 0.23 | 0.00 | 68 | 1005.0 |
| 20260508055545 | 5 | 297 | 1.6 | 4.8 | 0.00 | 0.23 | 0.00 | 66 | 1005.1 |
| 20260508055318 | 5 | 298 | 1.6 | 4.8 | 0.00 | 0.25 | 0.00 | 65 | 1005.2 |
| 20260508054818 | 6 | 298 | 0.0 | 4.8 | 0.00 | 0.25 | 0.00 | 64 | 1005.3 |
| 20260508054045 | 6 | 298 | 0.0 | 4.8 | 0.00 | 0.25 | 0.00 | 63 | 1005.4 |
| 20260508053546 | 6 | 298 | 0.0 | 11.3 | 0.00 | 0.28 | 0.00 | 62 | 1005.3 |
| 20260508053043 | 6 | 298 | 1.6 | 11.3 | 0.00 | 0.28 | 0.00 | 62 | 1005.4 |
| 20260508052544 | 6 | 297 | 3.2 | 11.3 | 0.00 | 0.28 | 0.00 | 62 | 1005.3 |
| 20260508052044 | 6 | 290 | 4.8 | 11.3 | 0.00 | 0.28 | 0.00 | 62 | 1005.3 |
| 20260508051544 | 6 | 318 | 4.8 | 16.1 | 0.00 | 0.28 | 0.00 | 61 | 1005.4 |
| 20260508051316 | 6 | 302 | 4.8 | 16.1 | 0.00 | 0.28 | 0.00 | 61 | 1005.4 |
| 20260508050543 | 6 | 308 | 4.8 | 16.1 | 0.00 | 0.28 | 0.00 | 61 | 1005.4 |
| 20260508050043 | 6 | 313 | 4.8 | 17.7 | 0.00 | 0.28 | 0.00 | 61 | 1005.4 |
| 20260508045543 | 6 | 313 | 6.4 | 17.7 | 0.00 | 0.28 | 0.00 | 61 | 1005.5 |
| 20260508045045 | 6 | 325 | 6.4 | 17.7 | 0.00 | 0.28 | 0.00 | 61 | 1005.5 |
| 20260508044544 | 6 | 292 | 6.4 | 17.7 | 0.00 | 0.28 | 0.00 | 61 | 1005.5 |
| 20260508044044 | 7 | 317 | 6.4 | 17.7 | 0.00 | 0.28 | 0.00 | 61 | 1005.6 |
| 20260508043544 | 7 | 325 | 6.4 | 17.7 | 0.00 | 0.28 | 0.00 | 60 | 1005.6 |
| 20260508043044 | 7 | 315 | 4.8 | 17.7 | 0.00 | 0.28 | 0.00 | 60 | 1005.5 |
| 20260508042815 | 7 | 310 | 4.8 | 14.5 | 0.00 | 0.28 | 0.00 | 60 | 1005.7 |
| 20260508042044 | 7 | 316 | 6.4 | 14.5 | 0.00 | 0.28 | 0.00 | 58 | 1005.8 |
| 20260508041543 | 7 | 311 | 6.4 | 16.1 | 0.00 | 0.28 | 0.00 | 59 | 1005.7 |
| 20260508041044 | 7 | 306 | 8.0 | 16.1 | 0.00 | 0.28 | 0.00 | 59 | 1005.8 |
| 20260508040542 | 7 | 302 | 8.0 | 16.1 | 0.00 | 0.28 | 0.00 | 59 | 1005.6 |
| 20260508040041 | 7 | 306 | 6.4 | 17.7 | 0.00 | 0.28 | 0.00 | 59 | 1005.7 |
| 20260508035811 | 7 | 303 | 6.4 | 17.7 | 0.00 | 0.28 | 0.28 | 60 | 1005.6 |
| 20260508035040 | 7 | 287 | 4.8 | 17.7 | 0.00 | 0.28 | 0.28 | 60 | 1005.5 |
| 20260508034541 | 7 | 322 | 4.8 | 17.7 | 0.00 | 0.28 | 0.28 | 60 | 1005.5 |
| 20260508034041 | 7 | 306 | 3.2 | 11.3 | 0.00 | 0.28 | 0.28 | 60 | 1005.6 |
| 20260508033545 | 7 | 301 | 1.6 | 9.7 | 0.00 | 0.28 | 0.28 | 58 | 1005.8 |
| 20260508033541 | 7 | 326 | 1.6 | 9.7 | 0.00 | 0.28 | 0.28 | 59 | 1005.8 |
| 20260508032814 | 7 | 298 | 1.6 | 11.3 | 0.00 | 0.28 | 0.28 | 57 | 1005.7 |
| 20260508032313 | 7 | 298 | 1.6 | 11.3 | 0.00 | 0.30 | 0.28 | 57 | 1005.6 |
| 20260508031541 | 8 | 311 | 3.2 | 9.7 | 0.00 | 0.30 | 0.28 | 57 | 1005.6 |
| 20260508031042 | 8 | 330 | 4.8 | 9.7 | 0.00 | 0.30 | 0.28 | 57 | 1005.5 |
| 20260508030543 | 8 | 311 | 3.2 | 8.0 | 0.00 | 0.30 | 0.28 | 55 | 1005.5 |
| 20260508030040 | 8 | 298 | 3.2 | 9.7 | 0.00 | 0.30 | 0.28 | 55 | 1005.5 |
| 20260508025541 | 8 | 327 | 1.6 | 16.1 | 0.00 | 0.30 | 0.28 | 56 | 1005.4 |
| 20260508025042 | 8 | 309 | 1.6 | 16.1 | 0.00 | 0.30 | 0.28 | 55 | 1005.4 |
| 20260508024541 | 8 | 307 | 3.2 | 16.1 | 0.00 | 0.33 | 0.28 | 55 | 1005.5 |
| 20260508024041 | 8 | 323 | 4.8 | 16.1 | 0.00 | 0.36 | 0.28 | 54 | 1005.4 |
| 20260508023541 | 8 | 333 | 4.8 | 16.1 | 0.00 | 0.36 | 0.28 | 54 | 1005.3 |
| 20260508023042 | 8 | 349 | 4.8 | 16.1 | 0.00 | 0.38 | 0.28 | 55 | 1005.4 |
| 20260508022540 | 8 | 300 | 4.8 | 16.1 | 0.00 | 0.41 | 0.28 | 55 | 1005.3 |
| 20260508022313 | 8 | 296 | 6.4 | 16.1 | 0.00 | 0.41 | 0.28 | 56 | 1005.4 |
| 20260508021540 | 8 | 317 | 4.8 | 16.1 | 0.00 | 0.46 | 0.28 | 56 | 1005.4 |
| 20260508021312 | 9 | 312 | 3.2 | 19.3 | 0.00 | 0.48 | 0.28 | 56 | 1005.5 |
| 20260508020538 | 9 | 319 | 4.8 | 19.3 | 0.00 | 0.53 | 0.28 | 56 | 1005.5 |
| 20260508020041 | 9 | 319 | 8.0 | 24.1 | 0.00 | 0.58 | 0.28 | 55 | 1005.5 |
| 20260508015539 | 9 | 355 | 8.0 | 24.1 | 0.00 | 0.64 | 0.28 | 55 | 1005.6 |
| 20260508015038 | 9 | 310 | 6.4 | 24.1 | 0.00 | 0.71 | 0.28 | 56 | 1005.6 |
| 20260508014811 | 9 | 309 | 8.0 | 24.1 | 0.00 | 0.79 | 0.28 | 57 | 1005.6 |
| 20260508014313 | 9 | 302 | 8.0 | 19.3 | 0.00 | 0.86 | 0.28 | 59 | 1005.7 |
| 20260508013810 | 9 | 311 | 6.4 | 17.7 | 0.00 | 0.91 | 0.28 | 61 | 1005.7 |
| 20260508013038 | 9 | 304 | 4.8 | 17.7 | 0.00 | 0.97 | 0.28 | 62 | 1005.7 |
| 20260508012808 | 10 | 296 | 3.2 | 14.5 | 0.00 | 1.02 | 0.28 | 64 | 1005.6 |
| 20260508012039 | 10 | 320 | 3.2 | 19.3 | 0.00 | 1.04 | 0.28 | 64 | 1005.6 |
| 20260508011536 | 10 | 311 | 4.8 | 19.3 | 0.00 | 1.07 | 0.28 | 64 | 1005.5 |
| 20260508011037 | 9 | 313 | 6.4 | 19.3 | 0.00 | 1.12 | 0.28 | 68 | 1005.2 |
| 20260508010538 | 9 | 315 | 6.4 | 19.3 | 0.00 | 1.17 | 0.28 | 71 | 1005.2 |
| 20260508010037 | 9 | 306 | 6.4 | 14.5 | 0.00 | 1.17 | 0.28 | 74 | 1005.1 |
| 20260508005536 | 8 | 302 | 6.4 | 14.5 | 0.00 | 1.19 | 0.28 | 77 | 1005.0 |
| 20260508005036 | 8 | 306 | 6.4 | 12.9 | 0.00 | 1.22 | 0.28 | 80 | 1005.0 |
| 20260508004536 | 8 | 309 | 4.8 | 14.5 | 0.00 | 1.24 | 0.28 | 82 | 1004.8 |
| 20260508004036 | 8 | 290 | 4.8 | 14.5 | 0.00 | 1.27 | 0.28 | 83 | 1004.9 |
| 20260508003534 | 8 | 269 | 4.8 | 14.5 | 0.00 | 1.30 | 0.28 | 82 | 1004.9 |
| 20260508003035 | 8 | 288 | 6.4 | 14.5 | 0.00 | 1.32 | 0.28 | 82 | 1004.7 |
| 20260508002535 | 8 | 282 | 6.4 | 19.3 | 0.00 | 1.32 | 0.28 | 82 | 1004.7 |
| 20260508002034 | 8 | 261 | 8.0 | 19.3 | 0.00 | 1.32 | 0.28 | 81 | 1004.6 |
| 20260508001534 | 8 | 259 | 9.7 | 19.3 | 0.00 | 1.32 | 0.28 | 81 | 1004.5 |
| 20260508001036 | 8 | 259 | 9.7 | 19.3 | 0.00 | 1.32 | 0.28 | 81 | 1004.4 |
| 20260508000534 | 8 | 275 | 9.7 | 19.3 | 0.00 | 1.35 | 0.28 | 80 | 1004.4 |
| 20260508000034 | 8 | 261 | 9.7 | 19.3 | 0.00 | 1.37 | 0.28 | 80 | 1004.2 |
| 20260507235534 | 8 | 249 | 9.7 | 19.3 | 0.00 | 1.37 | 0.28 | 80 | 1004.1 |
| 20260507235039 | 8 | 264 | 11.3 | 24.1 | 0.00 | 1.40 | 0.28 | 79 | 1004.0 |
| 20260507235035 | 8 | 268 | 9.7 | 24.1 | 0.00 | 1.40 | 0.28 | 79 | 1004.1 |
| 20260507234033 | 8 | 256 | 12.9 | 24.1 | 0.00 | 1.40 | 0.28 | 78 | 1004.1 |
| 20260507233532 | 8 | 240 | 14.5 | 24.1 | 0.00 | 1.40 | 0.28 | 78 | 1004.0 |
| 20260507233032 | 9 | 279 | 12.9 | 24.1 | 0.00 | 1.40 | 0.28 | 78 | 1003.9 |
| 20260507232534 | 9 | 242 | 12.9 | 24.1 | 0.00 | 1.40 | 0.28 | 78 | 1004.0 |
| 20260507232033 | 9 | 223 | 11.3 | 20.9 | 0.00 | 1.40 | 0.28 | 77 | 1004.0 |
| 20260507231532 | 9 | 252 | 11.3 | 19.3 | 0.00 | 1.40 | 0.28 | 77 | 1003.9 |
| 20260507231033 | 9 | 261 | 11.3 | 19.3 | 0.00 | 1.40 | 0.28 | 76 | 1003.8 |
| 20260507230532 | 10 | 274 | 9.7 | 19.3 | 0.00 | 1.40 | 0.28 | 75 | 1003.8 |
| 20260507230033 | 10 | 274 | 8.0 | 20.9 | 0.00 | 1.40 | 0.28 | 75 | 1003.8 |
| 20260507225530 | 10 | 260 | 9.7 | 20.9 | 0.00 | 1.40 | 0.28 | 75 | 1003.8 |
| 20260507225031 | 10 | 249 | 9.7 | 20.9 | 0.00 | 1.40 | 0.28 | 74 | 1003.7 |
| 20260507224529 | 10 | 244 | 9.7 | 20.9 | 0.00 | 1.40 | 0.28 | 73 | 1003.7 |
| 20260507224029 | 10 | 221 | 8.0 | 19.3 | 0.00 | 1.40 | 0.28 | 73 | 1003.6 |
| 20260507223530 | 10 | 268 | 4.8 | 16.1 | 0.00 | 1.40 | 0.28 | 73 | 1003.7 |
| 20260507223030 | 10 | 246 | 4.8 | 12.9 | 0.00 | 1.40 | 0.28 | 74 | 1003.6 |
| 20260507222530 | 10 | 250 | 3.2 | 12.9 | 0.00 | 1.40 | 0.28 | 74 | 1003.6 |
| 20260507222030 | 10 | 271 | 3.2 | 9.7 | 0.00 | 1.40 | 0.28 | 74 | 1003.5 |
| 20260507221532 | 10 | 271 | 4.8 | 9.7 | 0.00 | 1.40 | 0.28 | 74 | 1003.4 |
| 20260507221303 | 10 | 254 | 4.8 | 9.7 | 0.00 | 1.40 | 0.28 | 74 | 1003.4 |
| 20260507220528 | 10 | 256 | 4.8 | 16.1 | 0.00 | 1.40 | 0.28 | 74 | 1003.4 |
| 20260507220029 | 10 | 259 | 4.8 | 16.1 | 0.00 | 1.40 | 0.28 | 74 | 1003.5 |
| 20260507215529 | 10 | 219 | 4.8 | 16.1 | 0.00 | 1.40 | 0.28 | 74 | 1003.4 |
| 20260507215035 | 11 | 255 | 6.4 | 14.5 | 0.00 | 1.40 | 0.28 | 72 | 1003.4 |
| 20260507215028 | 11 | 223 | 6.4 | 16.1 | 0.00 | 1.40 | 0.28 | 73 | 1003.4 |
| 20260507214028 | 11 | 242 | 6.4 | 14.5 | 0.00 | 1.40 | 0.28 | 72 | 1003.4 |
| 20260507213528 | 11 | 267 | 8.0 | 17.7 | 0.00 | 1.40 | 0.28 | 71 | 1003.4 |
| 20260507213029 | 12 | 259 | 9.7 | 19.3 | 0.00 | 1.40 | 0.28 | 69 | 1003.4 |
| 20260507212758 | 12 | 229 | 8.0 | 19.3 | 0.00 | 1.40 | 0.28 | 69 | 1003.4 |
| 20260507212306 | 12 | 245 | 8.0 | 19.3 | 0.00 | 1.40 | 0.28 | 69 | 1003.5 |
| 20260507211528 | 12 | 248 | 9.7 | 19.3 | 0.00 | 1.40 | 0.28 | 69 | 1003.5 |
| 20260507211029 | 12 | 210 | 9.7 | 19.3 | 0.00 | 1.40 | 0.28 | 68 | 1003.4 |
| 20260507210527 | 12 | 264 | 9.7 | 17.7 | 0.00 | 1.40 | 0.28 | 68 | 1003.4 |
| 20260507210026 | 12 | 240 | 8.0 | 17.7 | 0.00 | 1.40 | 0.28 | 68 | 1003.4 |
| 20260507205528 | 12 | 234 | 9.7 | 16.1 | 0.00 | 1.40 | 0.28 | 69 | 1003.3 |
| 20260507205027 | 13 | 238 | 11.3 | 17.7 | 0.00 | 1.40 | 0.28 | 68 | 1003.4 |
| 20260507204529 | 12 | 198 | 11.3 | 19.3 | 0.00 | 1.40 | 0.28 | 69 | 1003.3 |
| 20260507204026 | 13 | 223 | 9.7 | 19.3 | 0.00 | 1.40 | 0.28 | 68 | 1003.2 |
| 20260507203528 | 13 | 193 | 9.7 | 22.5 | 0.00 | 1.40 | 0.28 | 68 | 1003.2 |
| 20260507203026 | 13 | 218 | 11.3 | 22.5 | 0.00 | 1.40 | 0.28 | 68 | 1003.2 |
| 20260507202759 | 13 | 233 | 11.3 | 27.4 | 0.00 | 1.40 | 0.28 | 67 | 1003.3 |
| 20260507202257 | 13 | 194 | 11.3 | 27.4 | 0.00 | 1.40 | 0.28 | 67 | 1003.3 |
| 20260507201527 | 13 | 171 | 11.3 | 27.4 | 0.00 | 1.40 | 0.28 | 68 | 1003.3 |
| 20260507201257 | 13 | 177 | 12.9 | 27.4 | 0.00 | 1.40 | 0.28 | 66 | 1003.4 |
| 20260507200759 | 13 | 221 | 11.3 | 25.7 | 0.00 | 1.40 | 0.28 | 66 | 1003.4 |
| 20260507200026 | 13 | 275 | 12.9 | 25.7 | 0.00 | 1.40 | 0.28 | 68 | 1003.4 |
| 20260507195526 | 13 | 195 | 12.9 | 27.4 | 0.00 | 1.40 | 0.28 | 66 | 1003.4 |
| 20260507195024 | 13 | 220 | 12.9 | 27.4 | 0.00 | 1.40 | 0.28 | 65 | 1003.5 |
| 20260507194525 | 13 | 254 | 14.5 | 25.7 | 0.00 | 1.40 | 0.28 | 66 | 1003.5 |
| 20260507194024 | 13 | 200 | 12.9 | 30.6 | 0.00 | 1.40 | 0.28 | 65 | 1003.4 |
| 20260507193524 | 13 | 232 | 12.9 | 30.6 | 0.03 | 1.40 | 0.28 | 66 | 1003.4 |
| 20260507193254 | 13 | 229 | 14.5 | 30.6 | 0.03 | 1.40 | 0.28 | 64 | 1003.5 |
| 20260507192525 | 13 | 190 | 16.1 | 30.6 | 0.03 | 1.40 | 0.28 | 65 | 1003.5 |
| 20260507192025 | 13 | 190 | 16.1 | 29.0 | 0.03 | 1.40 | 0.28 | 64 | 1003.5 |
| 20260507191525 | 13 | 206 | 16.1 | 29.0 | 0.03 | 1.40 | 0.28 | 62 | 1003.5 |
| 20260507191023 | 13 | 221 | 16.1 | 29.0 | 0.03 | 1.40 | 0.28 | 60 | 1003.5 |
| 20260507190755 | 13 | 204 | 16.1 | 30.6 | 0.03 | 1.40 | 0.28 | 61 | 1003.5 |
| 20260507190024 | 13 | 184 | 16.1 | 30.6 | 0.03 | 1.40 | 0.28 | 66 | 1003.6 |
| 20260507185525 | 13 | 201 | 14.5 | 30.6 | 0.03 | 1.40 | 0.28 | 66 | 1003.6 |
| 20260507185025 | 13 | 201 | 14.5 | 29.0 | 0.03 | 1.40 | 0.28 | 69 | 1003.5 |
| 20260507184526 | 13 | 267 | 14.5 | 32.2 | 0.03 | 1.40 | 0.28 | 69 | 1003.6 |
| 20260507184024 | 13 | 188 | 16.1 | 32.2 | 0.03 | 1.40 | 0.28 | 70 | 1003.6 |
| 20260507183525 | 13 | 217 | 17.7 | 32.2 | 0.00 | 1.37 | 0.25 | 71 | 1003.7 |
| 20260507183024 | 13 | 200 | 17.7 | 32.2 | 0.00 | 1.37 | 0.25 | 71 | 1003.7 |
| 20260507182524 | 13 | 181 | 16.1 | 30.6 | 0.00 | 1.37 | 0.25 | 71 | 1003.7 |
| 20260507182023 | 13 | 173 | 16.1 | 29.0 | 0.00 | 1.37 | 0.25 | 70 | 1003.7 |
| 20260507181525 | 13 | 225 | 16.1 | 29.0 | 0.00 | 1.37 | 0.25 | 69 | 1003.7 |
| 20260507181026 | 14 | 215 | 14.5 | 25.7 | 0.00 | 1.37 | 0.25 | 69 | 1003.6 |
| 20260507180521 | 14 | 234 | 14.5 | 25.7 | 0.00 | 1.37 | 0.25 | 69 | 1003.6 |
| 20260507180021 | 13 | 239 | 14.5 | 25.7 | 0.00 | 1.37 | 0.25 | 69 | 1003.8 |
| 20260507175522 | 14 | 242 | 14.5 | 25.7 | 0.00 | 1.37 | 0.25 | 68 | 1003.9 |
| 20260507175022 | 14 | 221 | 12.9 | 24.1 | 0.00 | 1.37 | 0.25 | 69 | 1003.9 |
| 20260507174522 | 15 | 196 | 11.3 | 24.1 | 0.00 | 1.37 | 0.25 | 66 | 1003.8 |
| 20260507174253 | 14 | 284 | 11.3 | 22.5 | 0.00 | 1.37 | 0.25 | 65 | 1003.8 |
| 20260507173523 | 15 | 240 | 11.3 | 19.3 | 0.00 | 1.37 | 0.25 | 62 | 1003.7 |
| 20260507173020 | 15 | 225 | 9.7 | 19.3 | 0.00 | 1.37 | 0.25 | 63 | 1003.8 |
| 20260507172521 | 15 | 274 | 11.3 | 20.9 | 0.00 | 1.37 | 0.25 | 66 | 1003.8 |
| 20260507172019 | 14 | 193 | 11.3 | 20.9 | 0.00 | 1.37 | 0.25 | 66 | 1003.7 |
| 20260507171520 | 14 | 190 | 11.3 | 20.9 | 0.00 | 1.37 | 0.25 | 64 | 1003.7 |
| 20260507171020 | 14 | 236 | 11.3 | 20.9 | 0.00 | 1.37 | 0.25 | 68 | 1003.7 |
| 20260507170520 | 14 | 225 | 9.7 | 19.3 | 0.00 | 1.37 | 0.25 | 66 | 1003.8 |
| 20260507170019 | 14 | 251 | 9.7 | 19.3 | 0.00 | 1.37 | 0.25 | 69 | 1003.8 |
| 20260507165519 | 14 | 259 | 11.3 | 22.5 | 0.00 | 1.37 | 0.25 | 69 | 1003.8 |
| 20260507165252 | 13 | 255 | 11.3 | 22.5 | 0.00 | 1.37 | 0.25 | 71 | 1003.9 |
| 20260507164520 | 13 | 219 | 9.7 | 22.5 | 0.00 | 1.37 | 0.25 | 72 | 1004.0 |
| 20260507164020 | 12 | 202 | 9.7 | 24.1 | 0.00 | 1.37 | 0.25 | 78 | 1004.1 |
| 20260507163519 | 11 | 138 | 9.7 | 24.1 | 0.00 | 1.37 | 0.25 | 79 | 1004.1 |
| 20260507163020 | 11 | 134 | 8.0 | 16.1 | 0.00 | 1.37 | 0.25 | 79 | 1004.1 |
| 20260507162519 | 11 | 170 | 6.4 | 14.5 | 0.00 | 1.37 | 0.25 | 80 | 1004.1 |
| 20260507162019 | 11 | 198 | 6.4 | 14.5 | 0.00 | 1.37 | 0.25 | 79 | 1004.0 |
| 20260507161519 | 11 | 170 | 8.0 | 16.1 | 0.00 | 1.37 | 0.25 | 79 | 1004.0 |
| 20260507161022 | 11 | 159 | 9.7 | 16.1 | 0.00 | 1.37 | 0.25 | 78 | 1004.1 |
| 20260507160520 | 12 | 178 | 8.0 | 16.1 | 0.00 | 1.37 | 0.25 | 76 | 1004.2 |
| 20260507160020 | 12 | 146 | 8.0 | 14.5 | 0.00 | 1.37 | 0.25 | 75 | 1004.2 |
| 20260507155520 | 12 | 144 | 9.7 | 16.1 | 0.00 | 1.37 | 0.25 | 76 | 1004.3 |
| 20260507155019 | 13 | 195 | 8.0 | 16.1 | 0.00 | 1.37 | 0.25 | 73 | 1004.4 |
| 20260507154751 | 13 | 128 | 4.8 | 12.9 | 0.00 | 1.37 | 0.25 | 74 | 1004.5 |
| 20260507154019 | 13 | 173 | 4.8 | 11.3 | 0.00 | 1.37 | 0.25 | 70 | 1004.4 |
| 20260507153525 | 13 | 54 | 4.8 | 11.3 | 0.00 | 1.37 | 0.25 | 73 | 1004.6 |
| 20260507153019 | 13 | 309 | 3.2 | 8.0 | 0.00 | 1.37 | 0.25 | 70 | 1004.7 |
| 20260507152520 | 13 | 100 | 1.6 | 8.0 | 0.00 | 1.37 | 0.25 | 71 | 1004.7 |
| 20260507152019 | 13 | 42 | 3.2 | 12.9 | 0.00 | 1.37 | 0.25 | 65 | 1004.7 |
| 20260507151520 | 13 | 38 | 3.2 | 12.9 | 0.00 | 1.37 | 0.25 | 68 | 1004.8 |
| 20260507151020 | 13 | 0 | 3.2 | 12.9 | 0.00 | 1.37 | 0.25 | 67 | 1004.8 |
| 20260507150523 | 13 | 314 | 3.2 | 11.3 | 0.00 | 1.37 | 0.25 | 72 | 1004.7 |
| 20260507150519 | 13 | 315 | 3.2 | 12.9 | 0.00 | 1.37 | 0.25 | 70 | 1004.9 |
| 20260507145517 | 13 | 328 | 3.2 | 12.9 | 0.00 | 1.37 | 0.25 | 75 | 1004.6 |
| 20260507145017 | 13 | 304 | 3.2 | 12.9 | 0.00 | 1.37 | 0.25 | 77 | 1004.6 |
| 20260507144517 | 13 | 300 | 3.2 | 9.7 | 0.00 | 1.37 | 0.25 | 77 | 1004.7 |
| 20260507144249 | 12 | 321 | 3.2 | 14.5 | 0.00 | 1.37 | 0.25 | 77 | 1004.8 |
| 20260507143517 | 12 | 312 | 3.2 | 14.5 | 0.00 | 1.37 | 0.25 | 76 | 1004.8 |
| 20260507143018 | 12 | 312 | 4.8 | 14.5 | 0.00 | 1.37 | 0.25 | 75 | 1004.8 |
| 20260507142517 | 12 | 317 | 3.2 | 14.5 | 0.00 | 1.37 | 0.25 | 77 | 1004.9 |
| 20260507142018 | 12 | 288 | 3.2 | 11.3 | 0.00 | 1.37 | 0.25 | 78 | 1004.9 |
| 20260507141518 | 12 | 286 | 3.2 | 11.3 | 0.00 | 1.37 | 0.25 | 81 | 1005.2 |
| 20260507141018 | 11 | 280 | 3.2 | 12.9 | 0.00 | 1.37 | 0.25 | 82 | 1005.2 |
| 20260507140524 | 11 | 252 | 3.2 | 12.9 | 0.00 | 1.37 | 0.25 | 84 | 1005.4 |
| 20260507140519 | 11 | 257 | 1.6 | 12.9 | 0.00 | 1.37 | 0.25 | 82 | 1005.1 |
| 20260507135518 | 11 | 294 | 3.2 | 12.9 | 0.00 | 1.37 | 0.25 | 85 | 1005.4 |
| 20260507135017 | 11 | 300 | 3.2 | 11.3 | 0.00 | 1.37 | 0.25 | 88 | 1005.4 |
| 20260507134513 | 10 | 290 | 3.2 | 11.3 | 0.00 | 1.37 | 0.25 | 88 | 1005.2 |
| 20260507134247 | 10 | 288 | 1.6 | 8.0 | 0.00 | 1.37 | 0.25 | 88 | 1005.2 |
| 20260507133513 | 9 | 287 | 1.6 | 12.9 | 0.00 | 1.37 | 0.25 | 89 | 1005.7 |
| 20260507133011 | 9 | 287 | 3.2 | 12.9 | 0.00 | 1.37 | 0.25 | 90 | 1005.8 |